This is the latest recevied weather packets stored in our database for station/object VY2CRA-4. If no packets are shown the sender has not sent any weather packets the latest 10 day(s).
| Time | Temp. | Humidity | Pressure | Rain* | Wind** | Luminosity | Snow |
|---|---|---|---|---|---|---|---|
| 1777813489 | 16.67° C | 36% | 1005.3 hPa | 0 mm | - | - | - |
| 1777812289 | 16.67° C | 38% | 1005.2 hPa | 0 mm | - | - | - |
| 1777811087 | 15.56° C | 40% | 1005.6 hPa | 0 mm | - | - | - |
| 1777809886 | 14.44° C | 43% | 1006.1 hPa | 0 mm | - | - | - |
| 1777808685 | 13.89° C | 44% | 1006.5 hPa | 0 mm | - | - | - |
| 1777807484 | 13.89° C | 44% | 1007 hPa | 0 mm | - | - | - |
| 1777806285 | 13.33° C | 45% | 1007.1 hPa | 0 mm | - | - | - |
| 1777805082 | 13.33° C | 45% | 1007.2 hPa | 0 mm | - | - | - |
| 1777803881 | 13.33° C | 46% | 1007.3 hPa | 0 mm | - | - | - |
| 1777802682 | 12.78° C | 47% | 1007.6 hPa | 0 mm | - | - | - |
| 1777801481 | 12.22° C | 48% | 1007.7 hPa | 0 mm | - | - | - |
| 1777800279 | 11.67° C | 48% | 1007.6 hPa | 0 mm | - | - | - |
| 1777799078 | 11.67° C | 49% | 1007.7 hPa | 0 mm | - | - | - |
| 1777797876 | 11.67° C | 49% | 1007.9 hPa | 0 mm | - | - | - |
| 1777796676 | 11.67° C | 49% | 1008.3 hPa | 0 mm | - | - | - |
| 1777795475 | 11.11° C | 49% | 1008.7 hPa | 0 mm | - | - | - |
| 1777794274 | 11.11° C | 49% | 1008.8 hPa | 0 mm | - | - | - |
| 1777793073 | 11.11° C | 49% | 1009.1 hPa | 0 mm | - | - | - |
| 1777791872 | 11.11° C | 48% | 1009.1 hPa | 0 mm | - | - | - |
| 1777790671 | 11.11° C | 47% | 1009.4 hPa | 0 mm | - | - | - |
| 1777789470 | 11.11° C | 47% | 1009.5 hPa | 0 mm | - | - | - |
| 1777788269 | 11.11° C | 47% | 1009.6 hPa | 0 mm | - | - | - |
| 1777787068 | 11.11° C | 47% | 1009.8 hPa | 0 mm | - | - | - |
| 1777785867 | 11.67° C | 47% | 1009.9 hPa | 0 mm | - | - | - |
| 1777784667 | 11.11° C | 47% | 1010.4 hPa | 0 mm | - | - | - |
* Rain since midnight (hover to see other rain measurements)
** Current wind speed in m/s (hover to see current wind gust speed)